Lid_Strength_Index
4 3 2 2 2 2 2 1 1 1 1 1 2 2 2 1 1 1 0 0 1 1 -0 -0 -0 -1 0 0 0 1 1 1 0 1 1 1 0 0 -0 -1 -0 -0 -1
5 4 3 2 3 3 2 1 1 1 1 1 1 1 1 1 1 0 0 0 0 1 -0 -0 -0 -0 0 0 0 0 1 1 0 2 2 4 2 1 0 -0 0 -0 -1
5 4 4 3 2 3 2 2 1 1 1 1 1 1 1 1 1 1 1 0 0 0 -0 -1 0 -0 0 1 1 0 1 2 1 1 2 5 5 3 1 1 0 0 -0
5 4 4 4 3 2 2 2 1 1 1 1 1 1 2 3 1 1 0 -0 0 0 -0 -1 -1 -0 -0 0 0 -0 0 1 2 1 1 1 1 4 4 2 1 0 1
4 4 4 3 2 2 2 1 1 1 1 1 1 1 2 1 1 1 1 0 -0 0 -0 -1 -1 -0 -0 -0 -0 0 0 0 1 1 2 2 2 2 3 5 3 1 1
5 4 3 3 3 2 2 2 2 1 1 1 1 1 2 2 2 1 1 1 0 0 0 -0 -0 -1 -0 -0 -0 0 1 1 0 1 1 2 2 3 3 4 3 3 2
5 5 4 4 3 3 2 2 2 2 1 1 1 1 1 2 2 1 1 1 1 1 0 0 -0 -0 -0 -0 -0 0 0 2 1 1 1 1 1 1 2 3 3 4 2
5 5 4 4 3 3 2 2 2 2 2 1 1 1 1 2 2 1 1 1 1 1 -0 -0 -0 -0 -0 -0 -0 0 1 1 1 0 1 1 1 0 1 2 3 4 3
5 5 4 3 3 3 2 2 2 2 1 1 1 1 1 1 1 1 1 1 0 0 -0 -0 0 -0 -0 -0 -0 0 1 0 0 0 0 1 0 0 0 0 1 3 5
6 5 4 3 3 2 2 2 2 2 2 1 1 1 1 1 1 1 1 1 0 0 0 0 0 0 -0 -0 0 0 0 0 0 0 1 0 0 0 0 1 1 1 2
6 6 5 4 3 2 2 2 2 2 2 1 1 1 1 1 1 1 1 1 0 0 0 0 0 0 0 0 0 1 0 1 1 0 1 1 0 1 1 1 1 1 1
5 5 5 5 5 4 4 3 2 2 1 1 1 1 1 1 1 1 1 0 1 0 0 0 0 0 0 0 1 1 1 1 1 1 1 1 1 1 0 1 1 1 1
5 5 4 6 4 4 4 5 5 5 5 4 2 1 1 1 1 1 1 1 1 0 1 1 1 1 1 1 0 1 1 1 1 1 1 1 1 1 1 1 1 1 1
5 5 5 4 4 4 4 4 3 2 3 3 3 3 2 1 1 1 1 1 1 1 1 1 1 0 0 0 0 1 1 1 1 1 0 1 1 1 1 1 1 1 1
6 5 5 4 4 3 3 3 2 2 2 2 2 2 2 1 1 1 1 1 1 1 1 1 1 0 1 1 1 1 1 1 1 0 0 0 0 1 1 1 1 1 2
5 5 4 4 4 3 3 2 2 2 2 2 2 2 2 2 2 2 1 1 1 1 1 1 1 1 1 3 2 1 1 1 1 1 1 0 1 1 2 2 2 1 1
5 5 4 4 3 3 2 3 3 2 2 3 3 2 2 3 3 2 1 1 1 1 1 1 1 1 1 4 4 2 1 1 1 1 1 1 0 1 0 2 3 3 4
5 4 4 3 3 2 2 2 2 2 3 4 2 3 3 3 2 2 2 2 1 2 1 1 1 1 1 4 5 3 1 1 1 1 1 1 1 0 0 1 1 1 0
4 3 3 3 2 2 2 2 2 2 2 2 3 3 2 2 2 2 3 2 1 2 2 1 1 2 1 6 6 4 2 1 1 1 0 0 1 3 4 1 1 1 1
3 3 3 2 2 2 2 2 3 3 3 2 2 1 2 2 2 2 2 1 1 2 1 2 1 2 2 8 7 4 2 2 2 1 1 4 1 5 6 1 1 2 2
4 4 3 3 3 2 2 3 3 3 2 1 1 1 1 1 1 2 2 4 4 2 2 2 1 2 4 5 8 7 2 2 2 2 2 1 6 8 8 7 1 2 1
5 4 4 3 3 2 2 3 3 2 1 1 2 2 1 1 1 2 2 2 2 3 4 2 2 3 4 7 8 7 6 5 4 3 1 1 6 9 9 8 7 8 6
6 5 4 4 3 3 2 3 2 1 2 2 2 2 1 1 1 2 2 3 2 3 5 4 3 3 5 5 8 8 6 5 2 1 2 6 9 10 9 8 6 8 4
5 5 5 5 5 4 3 2 1 1 2 2 2 2 2 2 1 2 2 2 3 3 4 3 3 3 3 4 4 4 3 6 4 3 1 3 5 5 4 3 5 3 3
5 5 5 5 6 5 4 3 2 2 2 2 2 2 2 2 2 2 2 2 2 3 3 3 2 3 4 4 5 5 3 2 4 3 1 2 2 3 2 2 3 4 5
6 6 5 5 5 5 5 4 3 2 2 3 2 2 2 2 2 2 2 5 6 9 10 10 5 3 6 8 9 11 10 11 10 2 2 3 2 3 2 2 2 3 4